Notices

What's New in latest Release from April 7th, 2021:

- Updated Glossary, including Speed of Maximum Gust, and Total Hourly Precipitation

- Updated national and regional climate services offices contacts and prices information

- Addition of station inventory lists for 1981-2010, 1971-2000, and 1961-1990 Normals.

If you haven't already, please take our survey and provide feedback about our website: https://eccc.sondage-survey.ca/f/LanguageSelection.aspx?s=442ca660-fcf1-47c0-95a9-59707d6fd709

Hourly Data Report for November 26, 2017

VICTORIA UNIVERSITY CS
BRITISH COLUMBIA

48°27'25.200" N
123°18'16.600" W
60.10 m
1018598
71783
WYJ

Download Data

Hourly Data (November 2017)
Hourly Data Report for November 26, 2017
TIME
LST
Temp Definition
°C
Dew Point Definition
°C
Rel Hum Definition
%
Precip. Amount Definition
mm

Wind Dir Definition
10's deg

Wind Spd Definition
km/h
Visibility Definition
km
Stn Press Definition
kPa
Hmdx Definition


Wind Chill Definition


Weather Definition


00:00 9.9 8.0 88 0.2 12 4   99.08     LegendNANA
01:00 10.1 8.1 88 0.0 14 6   98.97     LegendNANA
02:00 12.5 8.0 74 0.0 15 8   98.82     LegendNANA
03:00 11.1 8.3 83 0.0 15 7   98.72     LegendNANA
04:00 11.0 9.6 91 0.7 15 8   98.76     LegendNANA
05:00 11.4 9.8 90 0.3 17 10   98.79     LegendNANA
06:00 11.2 9.9 92 0.3 21 9   98.81     LegendNANA
07:00 10.9 9.2 89 2.0 26 14   98.91     LegendNANA
08:00 10.5 8.4 87 1.2 26 13   98.94     LegendNANA
09:00 10.6 7.7 83 0.0 26 14   98.96     LegendNANA
10:00 10.1 6.2 76 0.0 26 15   98.97     LegendNANA
11:00 8.6 6.9 89 0.9 26 10   99.13     LegendNANA
12:00 8.1 3.7 74 0.0 26 15   99.17     LegendNANA
13:00 8.8 5.0 77 0.0 25 11   99.27     LegendNANA
14:00 8.8 4.3 74 0.0 24 15   99.33     LegendNANA
15:00 8.7 4.4 75 0.0 24 11   99.49     LegendNANA
16:00 8.1 4.2 76 0.0 25 8   99.61     LegendNANA
17:00 6.9 4.9 87 1.2 26 13   99.78     LegendNANA
18:00 5.1 4.1 93 1.2 24 4   99.75     LegendNANA
19:00 5.2 4.1 92 0.0 24 3   99.86     LegendNANA
20:00 6.6 5.7 94 0.0 17 8   99.93     LegendNANA
21:00 6.8 5.6 92 0.0 17 5   100.06     LegendNANA
22:00 6.3 4.9 91 0.0 18 4   100.13     LegendNANA
23:00 6.0 4.0 87 0.0 17 4   100.19     LegendNANA

Notes on Data Quality.

Legend

  • E = Estimated
  • M = Missing
  • NA = Not Available*
  • [empty] = Indicates an unobserved value
Date modified: